| time (UTC) | temp C | wind direction | speed KPH | gust KPH | rain 1hr cm | rain 24hr cm | rain mn cm | humidity % | barometer mb |
| 20260504081553 | 8 | 17 | 24.1 | 33.8 | 0.00 | 0.00 | 0.00 | 57 | 1014.3 |
| 20260504050105 | 12 | 33 | 29.0 | 46.7 | 0.00 | 0.00 | 0.00 | 37 | 1009.8 |
| 20260504044559 | 13 | 5 | 30.6 | 43.5 | 0.00 | 0.00 | 0.00 | 38 | 1009.5 |
| 20260504043055 | 13 | 27 | 16.1 | 25.7 | 0.00 | 0.00 | 0.00 | 38 | 1009.0 |
| 20260504041557 | 14 | 41 | 14.5 | 24.1 | 0.00 | 0.00 | 0.00 | 37 | 1008.6 |
| 20260504040056 | 14 | 5 | 14.5 | 22.5 | 0.00 | 0.00 | 0.00 | 36 | 1008.2 |
| 20260504034551 | 15 | 28 | 16.1 | 24.1 | 0.00 | 0.00 | 0.00 | 36 | 1008.1 |
| 20260504033052 | 15 | 37 | 14.5 | 32.2 | 0.00 | 0.00 | 0.00 | 35 | 1007.6 |
| 20260504031554 | 16 | 21 | 20.9 | 32.2 | 0.00 | 0.00 | 0.00 | 34 | 1007.4 |
| 20260504030058 | 16 | 29 | 19.3 | 29.0 | 0.00 | 0.00 | 0.00 | 32 | 1007.1 |
| 20260504024607 | 17 | 41 | 17.7 | 27.4 | 0.00 | 0.00 | 0.00 | 29 | 1006.9 |
| 20260504023055 | 18 | 20 | 17.7 | 24.1 | 0.00 | 0.00 | 0.00 | 26 | 1006.8 |
| 20260504021555 | 20 | 360 | 8.0 | 16.1 | 0.00 | 0.00 | 0.00 | 20 | 1006.6 |
| 20260504020051 | 20 | 348 | 9.7 | 22.5 | 0.00 | 0.00 | 0.00 | 20 | 1006.7 |
| 20260504014556 | 21 | 13 | 12.9 | 25.7 | 0.00 | 0.00 | 0.00 | 19 | 1006.8 |
| 20260504013056 | 21 | 355 | 16.1 | 27.4 | 0.00 | 0.00 | 0.00 | 19 | 1006.7 |
| 20260504011553 | 22 | 360 | 16.1 | 30.6 | 0.00 | 0.00 | 0.00 | 19 | 1006.8 |
| 20260504004559 | 22 | 11 | 16.1 | 29.0 | 0.00 | 0.00 | 0.00 | 19 | 1006.8 |
| 20260504003054 | 22 | 360 | 17.7 | 30.6 | 0.00 | 0.00 | 0.00 | 18 | 1007.1 |
| 20260504001552 | 23 | 333 | 16.1 | 30.6 | 0.00 | 0.00 | 0.00 | 18 | 1007.2 |
| 20260504000132 | 22 | 345 | 14.5 | 25.7 | 0.00 | 0.00 | 0.00 | 18 | 1007.2 |
| 20260503234559 | 22 | 323 | 17.7 | 33.8 | 0.00 | 0.00 | 0.00 | 18 | 1007.2 |
| 20260503233052 | 22 | 300 | 17.7 | 35.4 | 0.00 | 0.00 | 0.00 | 18 | 1007.4 |
| 20260503231555 | 22 | 324 | 12.9 | 30.6 | 0.00 | 0.00 | 0.00 | 18 | 1007.4 |
| 20260503230052 | 22 | 297 | 22.5 | 37.0 | 0.00 | 0.00 | 0.00 | 18 | 1007.5 |
| 20260503224555 | 22 | 348 | 22.5 | 37.0 | 0.00 | 0.00 | 0.00 | 18 | 1007.6 |
| 20260503223053 | 23 | 334 | 20.9 | 37.0 | 0.00 | 0.00 | 0.00 | 18 | 1007.8 |
| 20260503221556 | 22 | 294 | 14.5 | 33.8 | 0.00 | 0.00 | 0.00 | 18 | 1007.9 |
| 20260503220054 | 22 | 184 | 17.7 | 35.4 | 0.00 | 0.00 | 0.00 | 18 | 1008.2 |
| 20260503214555 | 22 | 251 | 16.1 | 33.8 | 0.00 | 0.00 | 0.00 | 19 | 1008.2 |
| 20260503213055 | 22 | 265 | 19.3 | 29.0 | 0.00 | 0.00 | 0.00 | 19 | 1008.3 |
| 20260503211615 | 22 | 286 | 24.1 | 37.0 | 0.00 | 0.00 | 0.00 | 19 | 1008.7 |
| 20260503210056 | 22 | 292 | 17.7 | 38.6 | 0.00 | 0.00 | 0.00 | 19 | 1008.9 |
| 20260503204551 | 21 | 296 | 14.5 | 32.2 | 0.00 | 0.00 | 0.00 | 19 | 1009.0 |
| 20260503203110 | 21 | 274 | 17.7 | 30.6 | 0.00 | 0.00 | 0.00 | 20 | 1009.2 |
| 20260503201556 | 21 | 298 | 14.5 | 30.6 | 0.00 | 0.00 | 0.00 | 20 | 1009.4 |
| 20260503200058 | 22 | 305 | 16.1 | 30.6 | 0.00 | 0.00 | 0.00 | 19 | 1009.5 |
| 20260503194558 | 21 | 321 | 12.9 | 24.1 | 0.00 | 0.00 | 0.00 | 20 | 1009.7 |
| 20260503193054 | 20 | 275 | 19.3 | 37.0 | 0.00 | 0.00 | 0.00 | 18 | 1010.0 |
| 20260503191555 | 21 | 302 | 19.3 | 41.8 | 0.00 | 0.00 | 0.00 | 18 | 1010.3 |
| 20260503190059 | 20 | 253 | 22.5 | 33.8 | 0.00 | 0.00 | 0.00 | 19 | 1010.4 |
| 20260503184557 | 21 | 270 | 14.5 | 27.4 | 0.00 | 0.00 | 0.00 | 20 | 1010.4 |
| 20260503183054 | 20 | 327 | 16.1 | 29.0 | 0.00 | 0.00 | 0.00 | 21 | 1010.7 |
| 20260503181603 | 20 | 298 | 6.4 | 24.1 | 0.00 | 0.00 | 0.00 | 22 | 1010.9 |
| 20260503180057 | 20 | 285 | 19.3 | 38.6 | 0.00 | 0.00 | 0.00 | 22 | 1011.1 |
| 20260503174555 | 20 | 279 | 16.1 | 32.2 | 0.00 | 0.00 | 0.00 | 24 | 1011.3 |
| 20260503173058 | 20 | 298 | 11.3 | 25.7 | 0.00 | 0.00 | 0.00 | 27 | 1011.4 |
| 20260503171559 | 19 | 298 | 12.9 | 20.9 | 0.00 | 0.00 | 0.00 | 28 | 1011.5 |